This demonstration page uses our WeatherBlox Daily Observations layout. Learn more.

Left ArrowRight Arrow

Hourly Observations for February 28, 2019

Temp ( °F °C ) Dew Point ( °F °C ) Humidity (%) Winds ( mph kmh ) Pressure ( in mb ) Visibility ( mi km ) Precip ( " mm )
12:53 am 00:53 Partly Cloudy 53 11.7 53 11.7 100 100 Calm 30.03 1017 9 14 0.00 0.00
1:53 am 01:53 Mostly Cloudy 55 12.8 55 12.8 100 100 S 5 7 30.02 1017 8 13 0.00 0.00
2:53 am 02:53 Cloudy 56 13.3 56 13.3 100 100 S 3 6 30.01 1016 10 16 0.00 0.00
3:53 am 03:53 Clear 54 12.2 54 12.2 100 100 WSW 3 6 30.01 1016 8 13 0.00 0.00
4:21 am 04:21 Mostly Cloudy 55 12.8 55 12.8 100 100 Calm 30.02 1017 8 13 0.00 0.00
4:53 am 04:53 Cloudy 55 12.8 55 12.8 100 100 Calm 30.00 1016 8 13 0.00 0.00
5:53 am 05:53 Cloudy 55 12.8 55 12.8 100 100 Calm 30.00 1016 8 13 0.00 0.00
6:53 am 06:53 Cloudy 58 14.4 57 13.9 97 97 VRB 3 6 30.01 1016 10 16 0.00 0.00
7:11 am 07:11 Cloudy with Light Rain 57 13.9 57 13.9 100 100 S 5 7 30.03 1017 10 16 0.00 0.03
7:31 am 07:31 Cloudy with Light Rain 56 13.3 56 13.3 100 100 W 3 6 30.03 1017 7 11 0.01 0.25
7:53 am 07:53 Cloudy with Heavy Rain 56 13.3 56 13.3 100 100 SW 6 9 30.05 1018 3 5 0.08 2.03
7:55 am 07:55 Cloudy with Strong Thunderstorms 56 13.3 56 13.3 100 100 SW 6 9 30.06 1018 3 4 0.01 0.25
8:08 am 08:08 Cloudy with Thunderstorms 56 13.3 56 13.3 100 100 Calm 30.05 1018 3 5 0.05 1.27
8:15 am 08:15 Cloudy with Rain 56 13.3 56 13.3 100 100 SSW 3 6 30.05 1018 3 5 0.07 1.78
8:53 am 08:53 Cloudy with Rain 57 13.9 57 13.9 100 100 SW 3 6 30.05 1018 3 4 0.22 5.59
9:49 am 09:49 Cloudy with Light Rain 57 14 57 14 100 100 WSW 3 6 30.06 1018 3 4 0.02 0.51
9:53 am 09:53 Cloudy with Light Rain 57 13.9 57 13.9 100 100 SSW 6 9 30.05 1018 3 4 0.02 0.51
10:53 am 10:53 Cloudy with Light Rain 57 13.9 57 13.9 100 100 Calm 30.05 1018 7 11 0.07 1.78
11:53 am 11:53 Cloudy with Light Rain 58 14.4 57 13.9 97 97 Calm 30.04 1017 10 16 0.06 1.52
12:53 pm 12:53 Mostly Cloudy with Mist and Fog 59 15 58 14.4 96 96 VRB 3 6 30.03 1017 4 6 0.00 0.03
12:55 pm 12:55 Cloudy 59 15 58 14.4 96 96 SW 3 6 30.03 1017 10 16 0.00 0.00
1:53 pm 13:53 Cloudy 61 16.1 59 15 93 93 VRB 3 6 30.00 1016 10 16 0.00 0.00
2:53 pm 14:53 Cloudy with Light Rain 62 16.7 59 15 90 90 SW 9 15 30.01 1016 10 16 0.00 0.03
3:53 pm 15:53 Mostly Cloudy with Light Rain 63 17.2 60 15.6 90 90 NE 3 6 29.97 1015 10 16 0.00 0.03
4:53 pm 16:53 Mostly Cloudy 63 17.2 60 15.6 90 90 SSW 5 7 29.99 1016 10 16 0.00 0.03
5:53 pm 17:53 Sunny 64 17.8 60 15.6 87 87 Calm 29.98 1015 10 16 0.00 0.03
6:53 pm 18:53 Mostly Cloudy 62 16.7 60 15.6 93 93 SSW 3 6 29.99 1016 10 16 0.00 0.00
7:53 pm 19:53 Partly Cloudy 61 16.1 60 15.6 97 97 S 3 6 29.99 1016 10 16 0.00 0.00
8:53 pm 20:53 Mostly Clear with Mist and Fog 58 14.4 58 14.4 100 100 Calm 30.00 1016 5 8 0.00 0.00
8:58 pm 20:58 Mostly Clear with Mist and Fog 58 14.4 58 14.4 100 100 Calm 30.01 1016 2 3 0.00 0.00
9:06 pm 21:06 Mostly Clear 57 13.9 57 13.9 100 100 Calm 30.02 1017 10 16 0.00 0.00
9:51 pm 21:51 Cloudy 57 14 57 14 100 100 Calm 30.03 1017 10 16 0.00 0.00
9:53 pm 21:53 Cloudy 57 13.9 57 13.9 100 100 Calm 30.02 1017 10 16 0.00 0.00
10:12 pm 22:12 Mostly Cloudy 57 13.9 57 13.9 100 100 Calm 30.03 1017 10 16 0.00 0.00
10:53 pm 22:53 Mostly Cloudy 57 13.9 57 13.9 100 100 Calm 30.02 1017 8 13 0.00 0.00
11:53 pm 23:53 Cloudy 60 15.6 60 15.6 100 100 Calm 30.00 1016 10 16 0.00 0.00

Powered by AerisWeather